Flag for Guatemala Weather past 2 weeks in Guatemala, Guatemala

Now
66 °F

Passing clouds.


Feels Like: 66 °F
Forecast: 63 / 78 °F
Wind: 14 mph from North

Location: Guatemala Aeropuertola Aurora

Current Time: Jul 6, 2015 at 1:14:44 AM

Latest Report: Jul 6, 2015 at 1:00 AM


Visibility: N/A

Pressure: 30.33 "Hg (25.35 "Hg at 1533m altitude)

Humidity: 88%

Dew point: 63 °F

Location of GuatemalaLocation

Historic Weather in Guatemala — Graph

°F

Guatemala temperature yesterday

Maximum temperature yesterday: 77 °F (at 1:00 PM)
Minimum temperature yesterday: 63 °F (at 6:00 AM)
Average temperature yesterday: 70 °F

Past Weeks' High & Low Weather Summary

 TemperatureHumidityPressure
High81 °F (Jun 27, 2:00 PM)100% (Jun 28, 6:00 AM)30.36 "Hg (Jun 28, 6:00 AM)
Low61 °F (Jun 23, 3:00 AM)37% (Jun 27, 2:00 PM)30.15 "Hg (Jul 3, 4:00 PM)
Average69 °F75%30.29 "Hg
* Reported Midnight between Jun 20 and Jun 21 — Midnight between Jul 5 and Jul 6, Guatemala, Weather by CustomWeather, © 2015

Note: Actual official high and low records may vary slightly from our data, if they occured in-between our weather recording intervals... More about our weather records

Advertising

Guatemala weather history for previous 24 hours

 ConditionsComfort  
Time TempWeatherWind HumidityBarometerVisibility
12:00 AM
Mon, Jul 6
66 °FPassing clouds.14 mph88%30.33 "HgN/A
11:00 PM
Sun, Jul 5
66 °FPassing clouds.16 mph88%30.36 "HgN/A
10:00 PM68 °FPartly cloudy.21 mph78%30.36 "HgN/A
9:00 PM68 °FPartly cloudy.14 mph83%30.33 "HgN/A
8:00 PM70 °FPartly cloudy.16 mph78%30.30 "HgN/A
7:00 PM70 °FPartly cloudy.18 mph78%30.30 "HgN/A
6:00 PM73 °FPartly sunny.16 mph65%30.27 "HgN/A
5:00 PM77 °FPartly sunny.14 mph57%30.27 "HgN/A
4:00 PM77 °FBroken clouds.18 mph65%30.24 "HgN/A
3:00 PM75 °FPartly sunny.18 mph65%30.27 "HgN/A
2:00 PM77 °FBroken clouds.16 mph57%30.27 "HgN/A
1:00 PM77 °FPartly sunny.16 mph61%30.30 "HgN/A
12:00 PM73 °FBroken clouds.18 mph69%30.33 "HgN/A
11:00 AM70 °FBroken clouds.16 mph73%30.36 "HgN/A
10:00 AM72 °FBroken clouds.18 mph69%30.36 "HgN/A
9:00 AM72 °FBroken clouds.14 mph69%30.33 "HgN/A
8:00 AM68 °FBroken clouds.18 mph73%30.33 "HgN/A
7:00 AM66 °FBroken clouds.18 mph78%30.30 "HgN/A
6:00 AM63 °FBroken clouds.12 mph88%30.30 "HgN/A
5:00 AM64 °FPassing clouds.9 mph88%30.27 "HgN/A
4:00 AM64 °FPassing clouds.14 mph83%30.30 "HgN/A
3:00 AM64 °FPassing clouds.12 mph88%30.27 "HgN/A
2:00 AM64 °FPassing clouds.14 mph88%30.30 "HgN/A
1:00 AM66 °FPassing clouds.16 mph88%30.30 "HgN/A
Weather by CustomWeather, © 2015

See weather overviewHow to use our weather pages